Nome, AK

1:47 PM AKDT on October 01, 2016 (GMT -0800)
Nome

Weather History for PAOM - March, 2013

Change the Weather History Date:

Monday, March 11, 2013

  Actual Average Record
Temperature  
Mean Temperature 2 °F 10 °F  
Max Temperature 12 °F 18 °F 38 °F (1970)
Min Temperature -8 °F - -46 °F (1971)
Degree Days  
Heating Degree Days 63 55  
Month to date heating degree days 529 612  
Since 1 July heating degree days 10070 9894  
Cooling Degree Days 0    
Month to date cooling degree days 0  
Year to date cooling degree days 0  
Moisture  
Dew Point -1 °F    
Average Humidity 0    
Maximum Humidity 0    
Minimum Humidity 0    
Precipitation  
Precipitation T in 0.02 in 0.40 in (1930)
Month to date precipitation 0.51 0.26  
Year to date precipitation 2.03 2.13  
Snow  
Snow T in 0.30 in 5.00 in (1930)
Month to date snowfall 5.3 3.8  
Since 1 July snowfall 46.6 60.5  
Snow Depth 28.00 in    
Sea Level Pressure  
Sea Level Pressure 30.73 in    
Wind  
Wind Speed 3 mph (ENE)    
Max Wind Speed 10 mph    
Max Gust Speed 12 mph    
Visibility 9 miles    
Events Snow    
T = Trace of Precipitation, MM = Missing Value Source: NWS Daily Summary

Daily Weather History Graph

Daily Weather History Graph

Search for Another Location

Airport or City:

Trip Planner

Search our weather history database for the weather conditions in past years. The results will help you decide how hot, cold, wet, or windy it might be!

Date:

Astronomy

Mar. 11, 2013 Rise Set
Actual Time 9:32 AM AKDT 8:51 PM AKDT
Civil Twilight 8:44 AM AKDT 9:40 PM AKDT
Nautical Twilight 7:48 AM AKDT 10:37 PM AKDT
Astronomical Twilight 6:46 AM AKDT 11:39 PM AKDT
Moon 9:00 AM AKDT (3/11) 9:43 PM AKDT (3/11)
Length of Visible Light 12h 55m
Length of Day
11h 19m
New Moon, 0% of the Moon is Illuminated
Mar 11
New Moon
Mar 19
First Quarter
Mar 27
Full
Apr 2
Last Quarter
Apr 10
New

Hourly Weather History & Observations

Time (AKDT) Temp. Windchill Dew Point Humidity Pressure Visibility Wind Dir Wind Speed Gust Speed Precip Events Conditions
12:53 AM -0.9 °F -15.3 °F -7.1 °F 75% 30.61 in 10.0 mi NW 8.1 mph - N/A   Clear
1:53 AM -4.0 °F - -8.0 °F 83% 30.63 in 10.0 mi Calm Calm - N/A   Clear
2:53 AM -6.0 °F - -9.9 °F 83% 30.64 in 10.0 mi Calm Calm - N/A   Clear
3:53 AM -6.0 °F - -9.9 °F 83% 30.66 in 10.0 mi Calm Calm - N/A   Clear
4:53 AM -7.1 °F - -11.0 °F 83% 30.69 in 10.0 mi Calm Calm - N/A   Clear
5:53 AM -7.1 °F - -11.0 °F 83% 30.71 in 10.0 mi Calm Calm - N/A   Partly Cloudy
6:51 AM -4.0 °F - -7.6 °F 85% 30.70 in 10.0 mi Calm Calm - N/A   Mostly Cloudy
6:53 AM -4.0 °F - -7.1 °F 87% 30.71 in 10.0 mi Calm Calm - N/A   Mostly Cloudy
7:53 AM -2.0 °F - -7.1 °F 79% 30.72 in 10.0 mi Calm Calm - N/A   Mostly Cloudy
8:17 AM 1.4 °F -9.9 °F -4.0 °F 78% 30.72 in 10.0 mi North 5.8 mph - N/A   Overcast
8:53 AM 3.0 °F -9.3 °F -2.0 °F 80% 30.74 in 9.0 mi NNE 6.9 mph - 0.00 in Snow Light Snow
9:53 AM 6.1 °F -2.8 °F 3.0 °F 87% 30.74 in 10.0 mi NE 4.6 mph - 0.00 in Snow Light Snow
10:38 AM 10.4 °F - 6.8 °F 85% 30.74 in 9.0 mi Calm Calm - 0.00 in Snow Light Snow
10:53 AM 10.0 °F 0.4 °F 6.1 °F 84% 30.75 in 9.0 mi ENE 5.8 mph - 0.00 in Snow Light Snow
11:53 AM 10.9 °F 1.4 °F 6.1 °F 81% 30.75 in 9.0 mi East 5.8 mph - 0.00 in Snow Light Snow
12:53 PM 10.9 °F 0.2 °F 7.0 °F 84% 30.76 in 9.0 mi East 6.9 mph - 0.00 in Snow Light Snow
1:53 PM 12.0 °F 1.5 °F 7.0 °F 80% 30.77 in 10.0 mi East 6.9 mph - 0.00 in Snow Light Snow
2:53 PM 12.0 °F 1.5 °F 7.0 °F 80% 30.78 in 9.0 mi East 6.9 mph - 0.00 in Snow Light Snow
3:53 PM 12.0 °F 2.7 °F 7.0 °F 80% 30.77 in 10.0 mi East 5.8 mph - 0.00 in Snow Light Snow
4:53 PM 12.0 °F 2.7 °F 7.0 °F 80% 30.77 in 9.0 mi East 5.8 mph - 0.00 in Snow Light Snow
5:53 PM 12.0 °F 5.9 °F 7.0 °F 80% 30.77 in 4.0 mi East 3.5 mph - 0.00 in Snow Light Snow
6:53 PM 10.9 °F 1.4 °F 7.0 °F 84% 30.78 in 5.0 mi East 5.8 mph - 0.00 in Snow Light Snow
7:53 PM 10.0 °F 1.8 °F 7.0 °F 87% 30.77 in 7.0 mi East 4.6 mph - 0.00 in Snow Light Snow
8:53 PM 3.0 °F -4.4 °F -0.0 °F 87% 30.75 in 7.0 mi NE 3.5 mph - 0.00 in Snow Light Snow
8:58 PM 3.2 °F -6.2 °F -0.4 °F 85% 30.75 in 9.0 mi NE 4.6 mph - 0.00 in Snow Light Snow
9:53 PM -0.9 °F - -4.0 °F 87% 30.74 in 10.0 mi Calm Calm - 0.00 in   Scattered Clouds
10:09 PM -0.4 °F -8.3 °F -4.0 °F 85% 30.74 in 10.0 mi NNE 3.5 mph - N/A   Mostly Cloudy
10:53 PM -0.0 °F -7.9 °F -2.9 °F 88% 30.72 in 10.0 mi NNE 3.5 mph - N/A   Overcast
11:53 PM 1.9 °F - -0.9 °F 88% 30.72 in 5.0 mi Calm Calm - 0.00 in Snow Light Snow